EW8307 Weather Reports


Display with metric or nautical units.
time (UTC)temp
F
wind
direction
speed
MPH
gust
MPH
rain 1hr
in
rain 24hr
in
rain mn
in
humidity
%
barometer
mb
20260507134501 54 180 1.0 8.0 0.00 0.01 0.00 68 1004.2
20260507133059 53 340 2.0 6.0 0.00 0.01 0.00 72 1004.3
20260507131557 53 290 2.0 8.0 0.00 0.01 0.00 71 1004.4
20260507130104 52 300 0.0 6.0 0.00 0.01 0.00 77 1004.3
20260507124559 52 289 2.0 5.0 0.00 0.01 0.00 75 1004.4
20260507123057 51 288 1.0 8.0 0.00 0.01 0.00 77 1004.4
20260507121557 50 234 0.0 9.0 0.00 0.01 0.00 79 1004.6
20260507120052 49 295 0.0 8.0 0.00 0.01 0.00 81 1004.5
20260507114550 48 289 0.0 4.0 0.00 0.01 0.00 84 1004.2
20260507113050 48 290 1.0 7.0 0.00 0.01 0.00 85 1004.4
20260507111548 48 279 0.0 4.0 0.00 0.01 0.00 88 1004.1
20260507110057 47 279 0.0 2.0 0.00 0.01 0.00 90 1004.1
20260507104552 47 279 0.0 1.0 0.00 0.01 0.00 91 1003.8
20260507103112 47 279 0.0 3.0 0.00 0.01 0.00 92 1004.0
20260507101546 47 280 0.0 0.0 0.00 0.01 0.00 92 1003.8
20260507100059 47 280 0.0 0.0 0.00 0.01 0.00 92 1003.4
20260507094548 47 280 0.0 0.0 0.00 0.01 0.00 92 1003.2
20260507093044 47 280 0.0 3.0 0.00 0.01 0.00 91 1003.2
20260507091545 48 280 0.0 2.0 0.00 0.01 0.00 91 1003.2
20260507090050 48 280 0.0 1.0 0.00 0.01 0.00 90 1003.5
20260507084546 48 280 0.0 1.0 0.00 0.01 0.00 90 1003.9
20260507083043 48 280 0.0 2.0 0.00 0.01 0.00 90 1003.9
20260507081538 48 280 0.0 3.0 0.00 0.01 0.00 89 1003.7
20260507080044 48 280 0.0 1.0 0.00 0.01 0.00 89 1003.6
20260507074536 49 280 0.0 3.0 0.00 0.01 0.00 88 1003.5
20260507073039 49 279 0.0 3.0 0.00 0.01 0.00 86 1003.5
20260507071531 50 277 0.0 4.0 0.00 0.01 0.00 82 1003.2
20260507070037 50 278 0.0 5.0 0.00 0.01 0.00 81 1003.2
20260507064528 51 277 0.0 3.0 0.00 0.01 0.00 81 1002.8
20260507063027 51 276 1.0 4.0 0.00 0.01 0.00 81 1002.8
20260507061525 51 276 1.0 10.0 0.00 0.01 0.00 82 1003.1
20260507060024 52 305 0.0 1.0 0.00 0.01 0.00 86 1003.1
20260507054521 52 305 0.0 3.0 0.00 0.01 0.00 86 1003.0
20260507053018 53 312 0.0 3.0 0.00 0.01 0.01 84 1003.3
20260507051516 53 312 1.0 4.0 0.00 0.01 0.01 83 1003.4
20260507050034 54 341 1.0 8.0 0.00 0.01 0.01 86 1003.1
20260507044513 55 312 0.0 3.0 0.00 0.01 0.01 89 1002.9
20260507043012 55 318 0.0 4.0 0.00 0.01 0.01 89 1003.1
20260507041512 55 318 1.0 5.0 0.00 0.01 0.01 88 1003.0
20260507040009 56 321 1.0 6.0 0.00 0.01 0.01 88 1003.0
20260507034507 57 321 0.0 2.0 0.00 0.01 0.01 88 1003.3
20260507033005 57 322 1.0 6.0 0.00 0.01 0.01 86 1002.9
20260507031505 58 328 2.0 9.0 0.00 0.01 0.01 86 1002.8
20260507030005 58 323 0.0 8.0 0.00 0.01 0.01 93 1002.3
20260507024504 58 148 0.0 3.0 0.00 0.01 0.01 95 1002.3
20260507023004 58 129 0.0 7.0 0.00 0.01 0.01 95 1002.1
20260507021503 57 211 0.0 5.0 0.00 0.01 0.01 95 1002.1
20260507020004 57 208 0.0 5.0 0.00 0.01 0.01 95 1002.1
20260507014504 57 207 1.0 4.0 0.00 0.01 0.01 95 1002.2
20260507013003 57 188 0.0 4.0 0.00 0.01 0.01 95 1002.1
20260507011503 57 225 2.0 7.0 0.00 0.01 0.01 94 1002.1
20260507010002 58 230 1.0 8.0 0.00 0.01 0.01 94 1002.2
20260507004504 58 217 0.0 6.0 0.00 0.01 0.01 94 1002.2
20260507003001 57 207 0.0 5.0 0.00 0.01 0.01 94 1002.2
20260507001501 57 258 1.0 7.0 0.00 0.01 0.01 94 1002.1
20260507000004 57 222 0.0 6.0 0.00 0.01 0.01 94 1002.1
20260506234501 58 187 0.0 5.0 0.00 0.01 0.01 94 1001.6
20260506233000 58 229 1.0 6.0 0.00 0.01 0.01 94 1001.8
20260506231601 58 160 0.0 2.0 0.00 0.01 0.01 94 1001.7
20260506230001 58 160 0.0 5.0 0.00 0.01 0.01 94 1001.6
20260506224601 58 157 0.0 5.0 0.00 0.01 0.01 94 1001.6
20260506223105 58 119 0.0 4.0 0.00 0.01 0.01 94 1001.7
20260506221604 58 185 0.0 4.0 0.00 0.01 0.01 93 1001.9
20260506214601 58 195 1.0 6.0 0.00 0.01 0.01 93 1002.2
20260506213100 59 150 0.0 5.0 0.00 0.01 0.01 92 1002.3
20260506211557 59 234 0.0 4.0 0.00 0.01 0.01 92 1002.4
20260506204556 59 160 0.0 8.0 0.00 0.01 0.01 91 1002.5
20260506203053 59 177 0.0 5.0 0.00 0.01 0.01 91 1002.7
20260506201552 59 177 1.0 7.0 0.00 0.01 0.01 91 1002.6
20260506194552 59 220 0.0 5.0 0.00 0.01 0.01 90 1002.8
20260506193055 60 191 1.0 7.0 0.00 0.01 0.01 89 1002.8
20260506191558 61 149 0.0 5.0 0.01 0.01 0.01 89 1002.9
20260506184548 62 233 1.0 7.0 0.01 0.01 0.01 84 1003.0
20260506183046 64 213 2.0 8.0 0.01 0.01 0.01 80 1003.3
20260506181600 65 247 2.0 8.0 0.00 0.00 0.00 76 1003.5
20260506174545 68 234 2.0 13.0 0.00 0.00 0.00 66 1003.6
20260506173112 70 176 4.0 11.0 0.00 0.00 0.00 62 1003.4
20260506171547 71 207 5.0 14.0 0.00 0.00 0.00 59 1003.4
20260506164543 72 129 4.0 10.0 0.00 0.00 0.00 58 1003.6
20260506163051 71 179 0.0 13.0 0.00 0.00 0.00 61 1003.8
20260506161540 71 242 1.0 9.0 0.00 0.00 0.00 60 1003.9
20260506154538 69 219 4.0 13.0 0.00 0.00 0.00 62 1004.2
20260506153032 69 214 3.0 14.0 0.00 0.00 0.00 64 1004.5
20260506151531 69 109 2.0 8.0 0.00 0.00 0.00 64 1004.6
20260506144529 68 194 0.0 6.0 0.00 0.00 0.00 68 1004.8
20260506143027 67 223 1.0 7.0 0.00 0.00 0.00 70 1005.2
20260506141521 66 210 2.0 10.0 0.00 0.00 0.00 71 1005.0